Weather History for Oscoda, MI

Change the Weather History Date:

Monday, December 3, 2012

  Actual Average Record
Temperature  
Mean Temperature 47 °F -  
Max Temperature 56 °F 38 °F 62 °F (1998)
Min Temperature 38 °F 24 °F 3 °F (2002)
Degree Days  
Heating Degree Days 18    
Moisture  
Dew Point 44 °F    
Average Humidity 92    
Maximum Humidity 97    
Minimum Humidity 83    
Precipitation  
Precipitation 0.00 in - - ()
Sea Level Pressure  
Sea Level Pressure 29.99 in    
Wind  
Wind Speed 6 mph (SSE)    
Max Wind Speed 17 mph    
Max Gust Speed 29 mph    
Visibility 5 miles    
Events Fog    
Averages and records for this station are not official NWS values.
T = Trace of Precipitation, MM = Missing Value Source: NWS Daily Summary

Daily Weather History Graph

Daily Weather History Graph

Search for Another Location

Airport:

Trip Planner

Search our weather history database for the weather conditions in past years. The results will help you decide how hot, cold, wet, or windy it might be!

Date:

Astronomy

Dec. 03, 2012 Rise Set
Actual Time 7:52 AM EST 4:54 PM EST
Civil Twilight 7:19 AM EST 5:27 PM EST
Nautical Twilight 6:43 AM EST 6:03 PM EST
Astronomical Twilight 6:08 AM EST 6:38 PM EST
Moon 9:46 PM EST (12/3) 11:09 AM EST (12/3)
Length of Visible Light 10h 07m
Length of Day
9h 02m
Waning Gibbous, 78% of the Moon is Illuminated
Dec 3
Waning Gibbous
Dec 6
Last Quarter
Dec 13
New
Dec 20
First Quarter
Dec 28
Full

Hourly Weather History & Observations

Time (EST) Temp. Windchill Dew Point Humidity Pressure Visibility Wind Dir Wind Speed Gust Speed Precip Events Conditions
12:14 AM 40.3 °F - 36.5 °F 86% 30.11 in 10.0 mi Calm Calm - N/A   Overcast
12:34 AM 40.6 °F 38.6 °F 35.8 °F 83% 30.11 in 10.0 mi South 3.5 mph - N/A   Overcast
12:54 AM 40.1 °F 38.0 °F 36.0 °F 85% 30.11 in 10.0 mi SSW 3.5 mph - N/A   Overcast
1:14 AM 40.3 °F 37.1 °F 35.8 °F 84% 30.11 in 10.0 mi SSW 4.6 mph - N/A   Overcast
1:34 AM 40.3 °F 37.1 °F 36.0 °F 85% 30.12 in 10.0 mi SSW 4.6 mph - N/A   Overcast
1:54 AM 40.1 °F 36.9 °F 35.8 °F 85% 30.11 in 10.0 mi SSE 4.6 mph - N/A   Overcast
2:14 AM 40.1 °F 38.0 °F 35.8 °F 85% 30.12 in 10.0 mi South 3.5 mph - N/A   Overcast
2:34 AM 40.1 °F - 35.8 °F 85% 30.13 in 10.0 mi Calm Calm - N/A   Overcast
2:54 AM 40.3 °F - 35.8 °F 84% 30.13 in 10.0 mi Calm Calm - N/A   Overcast
3:14 AM 40.3 °F - 36.0 °F 85% 30.14 in 10.0 mi Calm Calm - N/A   Overcast
3:34 AM 39.6 °F - 36.5 °F 89% 30.13 in 10.0 mi Calm Calm - N/A   Overcast
3:54 AM 39.6 °F 36.3 °F 36.5 °F 89% 30.13 in 10.0 mi ESE 4.6 mph - N/A   Overcast
4:14 AM 39.6 °F 37.4 °F 36.3 °F 88% 30.13 in 10.0 mi SE 3.5 mph - N/A   Overcast
4:34 AM 39.6 °F - 36.5 °F 89% 30.11 in 10.0 mi Calm Calm - N/A   Overcast
4:54 AM 39.7 °F - 36.3 °F 88% 30.11 in 10.0 mi Calm Calm - N/A   Overcast
5:14 AM 38.7 °F 35.2 °F 36.5 °F 92% 30.10 in 10.0 mi SSE 4.6 mph - N/A   Overcast
5:34 AM 39.6 °F 35.4 °F 36.5 °F 89% 30.10 in 10.0 mi SE 5.8 mph - N/A   Overcast
5:54 AM 40.1 °F 35.3 °F 36.7 °F 88% 30.10 in 10.0 mi ESE 6.9 mph - N/A   Overcast
6:14 AM 40.3 °F 36.3 °F 37.0 °F 88% 30.10 in 10.0 mi SE 5.8 mph - N/A   Overcast
6:34 AM 40.5 °F 35.1 °F 37.4 °F 89% 30.10 in 10.0 mi ESE 8.1 mph - N/A   Overcast
6:54 AM 40.3 °F 35.5 °F 37.4 °F 89% 30.10 in 10.0 mi ESE 6.9 mph - N/A   Overcast
7:14 AM 40.3 °F 36.3 °F 37.9 °F 91% 30.11 in 10.0 mi SE 5.8 mph - N/A   Overcast
7:34 AM 41.0 °F 36.4 °F 38.5 °F 91% 30.11 in 7.0 mi SE 6.9 mph - N/A   Overcast
7:54 AM 41.2 °F 36.6 °F 39.2 °F 93% 30.11 in 7.0 mi SE 6.9 mph - N/A   Overcast
8:14 AM 41.9 °F 36.9 °F 39.4 °F 91% 30.12 in 5.0 mi SSE 8.1 mph - N/A   Overcast
8:34 AM 41.9 °F 37.5 °F 39.6 °F 91% 30.11 in 5.0 mi SSE 6.9 mph - N/A   Overcast
8:54 AM 42.3 °F 38.6 °F 39.9 °F 91% 30.10 in 5.0 mi SSE 5.8 mph - N/A   Overcast
9:14 AM 42.3 °F 37.3 °F 40.1 °F 92% 30.10 in 4.0 mi South 8.1 mph - N/A   Overcast
9:34 AM 42.3 °F 37.3 °F 40.1 °F 92% 30.10 in 4.0 mi South 8.1 mph - N/A   Overcast
9:54 AM 42.4 °F 37.5 °F 40.1 °F 91% 30.10 in 5.0 mi South 8.1 mph - N/A   Overcast
10:15 AM 43.2 °F 37.9 °F 40.5 °F 90% 30.09 in 5.0 mi SE 9.2 mph - N/A   Overcast
10:34 AM 43.3 °F 38.1 °F 40.6 °F 90% 30.09 in 5.0 mi SSE 9.2 mph - N/A   Overcast
10:54 AM 44.4 °F 39.5 °F 41.0 °F 88% 30.08 in 5.0 mi SSE 9.2 mph - N/A   Overcast
11:15 AM 44.6 °F 39.7 °F 41.0 °F 87% 30.07 in 7.0 mi SSE 9.2 mph - N/A   Overcast
11:34 AM 44.8 °F 39.4 °F 41.0 °F 87% 30.06 in 5.0 mi SSE 10.4 mph - N/A   Overcast
11:54 AM 45.0 °F 39.7 °F 41.4 °F 87% 30.04 in 5.0 mi SSE 10.4 mph - N/A   Overcast
12:14 PM 45.7 °F 41.0 °F 42.1 °F 87% 30.02 in 5.0 mi SSE 9.2 mph - N/A   Overcast
12:34 PM 46.0 °F 41.4 °F 43.0 °F 89% 30.00 in 4.0 mi South 9.2 mph - N/A   Overcast
12:54 PM 46.4 °F 41.9 °F 43.9 °F 91% 30.00 in 2.5 mi SSE 9.2 mph - N/A   Overcast
1:14 PM 46.0 °F 41.4 °F 44.8 °F 95% 29.99 in 0.8 mi South 9.2 mph - N/A   Overcast
1:34 PM 46.4 °F 41.9 °F 45.3 °F 96% 29.98 in 0.5 mi South 9.2 mph - N/A Fog Fog
1:54 PM 46.8 °F - 45.9 °F 97% 29.97 in 0.8 mi South 10.4 mph - N/A   Overcast
2:14 PM 47.3 °F - 46.4 °F 97% 29.96 in 1.0 mi South 9.2 mph - N/A   Overcast
2:34 PM 47.5 °F - 46.6 °F 97% 29.95 in 0.5 mi SSE 6.9 mph - N/A Fog Fog
2:54 PM 47.8 °F - 47.1 °F 97% 29.94 in 0.8 mi SSE 6.9 mph - N/A   Overcast
3:14 PM 48.2 °F - 47.3 °F 97% 29.94 in 0.8 mi SSE 8.1 mph - N/A   Overcast
3:34 PM 48.7 °F - 48.0 °F 97% 29.93 in 1.2 mi SSE 9.2 mph - N/A   Overcast
3:54 PM 49.5 °F - 48.7 °F 97% 29.93 in 1.8 mi SSE 8.1 mph - N/A   Overcast
4:14 PM 50.2 °F - 49.1 °F 96% 29.92 in 2.5 mi SSE 10.4 mph - N/A   Overcast
4:34 PM 51.1 °F - 49.5 °F 94% 29.92 in 2.5 mi SSE 9.2 mph 16.1 mph N/A   Overcast
4:54 PM 50.9 °F - 49.3 °F 94% 29.91 in 2.5 mi SSE 10.4 mph - N/A   Overcast
5:14 PM 50.9 °F - 49.1 °F 94% 29.90 in 4.0 mi SSE 9.2 mph - N/A   Overcast
5:34 PM 50.9 °F - 49.5 °F 95% 29.90 in 3.0 mi SSE 8.1 mph - N/A   Overcast
5:54 PM 51.3 °F - 50.0 °F 95% 29.89 in 3.0 mi SSE 9.2 mph - N/A   Overcast
6:14 PM 52.3 °F - 51.1 °F 95% 29.88 in 3.0 mi SSE 15.0 mph 20.7 mph N/A   Overcast
6:34 PM 52.2 °F - 51.1 °F 96% 29.87 in 2.0 mi SSE 15.0 mph 19.6 mph N/A   Drizzle
6:54 PM 52.7 °F - 51.8 °F 97% 29.86 in 1.5 mi South 13.8 mph 23.0 mph N/A   Light Drizzle
7:14 PM 52.9 °F - 52.0 °F 97% 29.85 in 1.8 mi South 12.7 mph 20.7 mph N/A   Light Drizzle
7:34 PM 52.9 °F - 52.2 °F 97% 29.85 in 2.0 mi South 15.0 mph 19.6 mph N/A   Overcast
7:55 PM 53.1 °F - 52.3 °F 97% 29.85 in 2.5 mi SSW 13.8 mph - N/A   Overcast
8:14 PM 53.6 °F - 52.7 °F 97% 29.84 in 2.5 mi SSW 15.0 mph - N/A   Overcast
8:34 PM 53.6 °F - 52.7 °F 97% 29.83 in 2.5 mi South 15.0 mph 21.9 mph N/A   Overcast
8:54 PM 53.8 °F - 52.9 °F 97% 29.82 in 3.0 mi SW 12.7 mph 20.7 mph N/A   Overcast
9:14 PM 53.8 °F - 52.7 °F 96% 29.81 in 3.0 mi South 13.8 mph 21.9 mph N/A   Light Drizzle
9:34 PM 54.1 °F - 53.1 °F 96% 29.80 in 3.0 mi SSE 8.1 mph 19.6 mph N/A   Overcast
9:54 PM 54.7 °F - 53.6 °F 96% 29.78 in 3.0 mi South 13.8 mph 19.6 mph N/A   Overcast
10:14 PM 55.4 °F - 53.8 °F 94% 29.77 in 4.0 mi South 12.7 mph 20.7 mph N/A   Overcast
10:34 PM 55.9 °F - 54.5 °F 95% 29.77 in 4.0 mi SSW 15.0 mph 18.4 mph N/A   Overcast
10:54 PM 56.5 °F - 54.5 °F 93% 29.76 in 5.0 mi South 15.0 mph 23.0 mph N/A   Overcast
11:14 PM 55.9 °F - 53.8 °F 92% 29.76 in 5.0 mi SSW 17.3 mph 28.8 mph N/A   Overcast
11:34 PM 55.8 °F - 53.6 °F 92% 29.76 in 5.0 mi SSW 13.8 mph 27.6 mph N/A   Overcast
11:54 PM 55.8 °F - 53.6 °F 92% 29.76 in 7.0 mi South 15.0 mph 21.9 mph N/A   Overcast